Wind_Speed
25 25 24 24 25 25 25 24 24 23 22 22 21 21 21 21 21 21 21 21 22 22 22 22 23 23 23 23 23 23 23 23 22 22 21 21 20 20 20 20 20 20 19
25 25 24 24 24 24 24 23 23 22 22 21 20 20 20 20 19 19 20 20 20 21 21 21 21 21 22 22 22 22 22 21 20 20 20 20 19 18 18 17 17 18 18
24 24 24 24 23 23 22 22 21 21 20 20 20 19 19 19 19 18 18 18 18 19 19 19 19 19 20 20 20 20 20 20 20 19 19 17 17 16 16 16 16 16 16
24 23 23 23 22 22 21 21 20 20 19 19 18 17 17 18 18 17 17 17 17 16 16 16 16 17 17 18 18 18 18 18 18 18 18 17 17 16 16 16 15 15 15
21 21 22 22 21 21 20 19 19 18 18 17 17 16 16 16 15 15 15 15 15 15 15 15 14 14 14 15 15 16 16 16 16 16 16 16 15 15 15 14 14 14 13
20 21 21 20 19 18 17 17 16 16 15 15 15 15 14 14 13 13 13 13 14 14 14 14 14 13 12 12 13 14 15 15 15 15 15 15 14 14 13 14 13 12 12
19 18 17 16 16 15 15 15 15 15 13 13 13 12 12 12 11 11 12 12 11 11 12 12 12 11 11 11 12 12 12 13 13 13 13 13 13 12 13 12 12 11 10
16 14 13 12 12 12 12 13 12 11 11 10 9 9 9 9 9 9 9 8 8 9 9 9 9 9 9 9 9 10 10 11 11 11 11 11 12 12 11 10 9 9 9
12 11 10 9 9 9 9 9 8 8 8 7 7 7 6 6 7 7 6 5 6 6 6 7 7 7 7 7 7 7 8 8 9 9 9 9 10 10 10 10 8 8 7
10 9 8 8 8 8 7 6 6 6 6 5 5 4 4 4 4 4 3 3 3 3 4 4 5 5 4 4 5 6 6 7 7 7 7 7 8 8 7 8 7 7 7
8 7 7 7 7 6 5 4 4 4 3 3 2 2 2 2 1 1 1 0 0 1 1 1 2 3 2 2 3 3 4 5 5 5 5 5 5 5 6 6 6 6 5
7 6 6 6 5 4 4 4 4 3 3 2 1 1 1 1 1 1 1 1 1 1 1 1 1 1 1 2 2 2 3 3 3 3 3 3 4 4 4 5 5 4 4
6 5 5 5 5 4 3 3 3 2 2 2 3 2 2 2 2 1 1 2 2 2 3 3 3 3 3 3 3 3 3 3 3 4 3 3 3 3 3 3 4 4 3
7 6 5 5 4 4 4 4 4 4 4 3 4 4 4 3 2 3 3 4 4 4 3 3 3 3 3 3 3 4 4 4 4 4 3 3 3 3 3 3 2 3 2
7 6 6 6 5 6 6 5 5 4 4 4 4 4 4 4 4 4 4 4 4 4 3 3 4 5 4 4 4 5 5 5 5 4 4 3 3 3 3 2 1 1 2
8 8 7 7 7 6 6 6 5 5 4 4 4 4 4 4 4 4 4 4 4 4 4 4 4 5 5 5 5 5 4 4 4 4 4 3 3 2 1 0 1 2 3
10 9 8 8 7 7 6 6 5 5 5 5 4 4 3 4 4 4 4 4 4 4 4 5 5 5 5 4 4 4 4 4 4 3 2 2 1 1 0 1 2 4 5
10 9 8 8 7 6 6 5 5 5 5 4 4 4 4 4 4 4 4 4 4 5 5 5 5 4 4 4 4 3 3 2 2 1 1 1 1 1 2 3 4 5 6
10 9 9 8 7 6 6 6 5 5 5 4 4 4 4 4 4 4 4 3 4 4 4 3 3 3 3 3 2 1 1 1 1 1 2 2 3 3 4 5 6 7 8
9 9 8 8 8 7 6 5 4 4 3 3 3 2 3 3 3 3 3 2 2 2 2 2 1 1 1 1 1 1 2 2 3 3 4 5 5 6 6 7 8 9 10
8 8 8 8 8 7 6 5 4 4 3 3 2 2 2 2 2 2 1 1 0 0 1 1 2 2 2 3 3 4 4 5 6 6 7 8 8 9 10 11 12 13 14
8 8 8 8 8 7 6 6 5 4 3 3 2 1 1 0 0 1 1 2 2 2 3 3 4 4 5 5 6 7 7 8 9 9 10 11 11 12 13 14 15 16 17
6 7 7 8 7 7 7 6 5 4 3 3 2 2 2 2 2 2 3 3 4 5 6 6 7 7 8 8 9 10 11 11 12 12 13 14 15 16 17 18 19 20 21
6 6 6 7 7 7 6 6 5 4 3 3 3 3 3 3 4 5 5 6 7 8 8 9 10 10 11 12 13 13 14 14 15 16 17 18 19 19 20 21 22 23 25
6 7 7 7 6 6 6 6 6 5 5 5 5 5 6 6 7 7 8 9 10 11 11 12 13 14 15 15 16 16 17 18 19 20 21 21 22 23 24 25 26 27 28
7 7 8 8 8 8 7 7 7 7 7 8 8 8 9 9 10 11 11 12 13 14 15 15 16 17 18 19 20 20 21 22 22 23 24 25 25 27 28 29 30 31 31
Wind_Direction
292 290 289 288 287 288 288 288 287 285 285 283 280 278 277 276 274 274 271 270 269 268 268 267 266 264 263 260 260 260 260 261 262 262 264 265 267 268 268 268 267 268 269
292 290 288 288 287 287 287 286 286 285 285 284 283 280 279 277 274 275 274 271 271 269 268 267 265 263 261 259 259 258 258 259 259 260 263 265 266 266 267 266 266 267 269
293 291 290 288 287 287 287 285 285 285 285 284 282 281 279 277 275 275 276 274 273 271 269 266 264 261 260 260 259 257 256 257 258 260 262 262 263 264 265 264 265 268 272
293 292 291 289 287 286 285 284 284 283 283 283 282 282 279 276 274 274 275 273 273 271 269 267 267 264 261 260 258 256 256 256 257 258 260 261 262 263 262 262 265 268 272
296 293 291 289 286 285 285 283 283 283 283 283 282 282 280 278 275 275 275 274 270 268 265 266 267 266 262 259 256 255 254 255 255 256 258 261 262 260 260 261 263 267 269
299 297 293 290 287 286 285 284 285 285 284 283 284 284 281 277 275 275 277 277 270 267 264 265 263 264 263 259 256 253 251 251 251 254 256 258 256 256 256 257 258 264 268
303 300 296 293 291 289 287 287 288 286 284 285 286 285 281 276 277 280 281 278 270 268 264 264 259 258 260 259 257 250 249 248 249 252 254 252 250 254 252 250 253 263 266
308 305 302 300 298 296 294 292 294 291 286 284 285 285 281 276 277 281 280 274 270 268 264 263 259 258 262 260 251 248 247 245 246 247 249 248 247 249 247 247 252 256 256
316 313 310 306 306 306 307 303 299 298 295 287 286 286 280 274 272 277 280 273 270 270 268 265 256 257 259 256 248 242 237 236 235 237 243 243 245 248 249 251 252 251 252
324 323 320 317 315 315 315 310 302 300 292 291 299 299 280 270 262 270 284 274 276 273 270 265 254 250 251 249 244 235 231 228 225 228 235 237 239 240 242 240 240 241 245
332 326 324 326 321 321 324 324 320 319 310 301 301 291 258 248 255 276 297 244 221 272 285 272 235 240 241 235 229 216 213 214 216 223 226 232 229 229 227 225 223 228 238
346 344 347 352 349 343 335 332 335 341 346 342 339 33 102 124 126 114 84 98 110 90 78 82 132 164 145 153 158 166 172 171 181 186 186 193 199 202 205 207 214 223 224
7 7 10 10 3 0 3 5 13 27 51 59 50 60 86 98 108 104 90 93 102 101 96 92 96 95 112 124 128 130 136 140 142 148 152 157 165 178 192 201 205 205 217
24 21 19 18 18 25 32 43 55 65 72 77 73 77 86 95 99 96 97 93 93 96 94 90 92 99 105 113 120 125 128 130 134 141 140 146 151 156 157 168 178 192 216
29 30 34 38 41 48 58 69 78 78 73 80 92 96 96 100 100 100 94 88 85 87 91 103 109 106 102 107 113 118 122 124 124 126 126 130 132 134 144 157 178 222 254
34 37 39 41 46 54 63 72 80 79 73 72 87 99 100 106 106 99 95 89 86 89 87 93 102 111 113 113 118 122 122 120 121 122 121 121 124 130 139 200 259 280 292
38 40 46 50 53 57 63 70 73 75 75 77 88 94 95 96 99 101 98 98 94 95 96 99 101 110 121 125 128 129 129 126 120 115 115 126 132 149 266 288 283 288 294
39 43 45 47 50 52 56 61 68 73 75 79 84 89 96 103 99 102 101 97 98 99 103 105 107 111 114 119 124 126 126 128 128 136 174 227 258 284 288 292 293 295 298
39 42 44 45 47 51 55 58 64 70 71 74 74 78 89 97 96 98 105 111 112 115 118 114 114 116 118 122 131 148 167 206 245 266 277 281 284 287 290 293 296 298 299
39 41 42 43 44 45 50 55 57 58 60 61 62 70 79 88 99 103 109 116 118 126 135 149 155 146 163 192 262 269 266 269 275 283 287 287 287 288 289 291 294 296 298
32 35 35 35 35 35 39 44 46 47 49 50 58 71 77 83 98 108 112 114 114 203 222 244 257 262 270 271 277 281 284 285 286 288 290 290 289 288 289 292 294 295 297
29 29 26 28 31 32 32 34 36 39 45 49 52 44 26 341 291 279 265 269 276 273 276 277 277 280 281 279 279 281 282 284 286 287 288 289 289 290 291 293 294 295 296
19 19 20 22 23 24 24 25 26 28 28 22 16 0 329 299 278 277 277 274 276 280 282 281 280 282 282 280 282 284 284 284 285 285 286 288 289 291 292 293 294 295 296
6 6 9 11 11 11 10 10 10 9 1 346 332 320 309 295 284 282 284 284 283 284 285 283 280 280 281 283 283 283 284 285 286 286 286 287 288 289 291 292 294 295 296
351 351 352 353 353 352 352 350 348 345 339 327 315 306 298 294 289 285 283 282 282 282 283 283 283 282 283 284 285 284 285 285 286 287 288 289 290 291 292 292 293 294 295
335 334 333 334 333 331 330 327 324 322 318 313 307 301 296 293 290 287 286 285 285 284 284 283 282 282 282 283 284 284 286 287 287 288 289 290 292 293 294 294 294 294 294
Height
5795 5792 5790 5788 5786 5784 5782 5780 5778 5776 5774 5773 5771 5770 5769 5768 5768 5767 5767 5766 5766 5766 5766 5766 5766 5767 5767 5768 5768 5769 5770 5771 5771 5771 5772 5772 5771 5771 5770 5770 5769 5769 5768
5788 5785 5783 5781 5779 5777 5775 5773 5771 5770 5768 5766 5765 5764 5763 5762 5761 5761 5760 5760 5759 5759 5759 5759 5759 5759 5760 5761 5761 5762 5763 5764 5764 5765 5765 5765 5765 5765 5765 5764 5764 5764 5763
5781 5778 5776 5773 5772 5770 5768 5766 5765 5763 5762 5760 5759 5758 5757 5756 5755 5755 5754 5754 5753 5753 5752 5752 5753 5753 5753 5754 5755 5756 5757 5757 5758 5759 5759 5760 5760 5760 5760 5759 5759 5759 5758
5774 5771 5769 5766 5764 5763 5761 5760 5759 5757 5756 5755 5753 5752 5751 5750 5750 5749 5748 5748 5747 5747 5747 5747 5747 5747 5747 5748 5749 5750 5751 5752 5752 5753 5754 5754 5754 5754 5755 5755 5755 5754 5754
5767 5765 5762 5760 5758 5756 5755 5754 5753 5751 5750 5749 5748 5747 5746 5745 5744 5743 5743 5742 5742 5742 5742 5742 5742 5742 5742 5742 5743 5744 5745 5746 5747 5748 5748 5749 5749 5749 5750 5750 5750 5750 5750
5762 5759 5756 5754 5752 5751 5749 5748 5747 5746 5745 5744 5743 5742 5741 5740 5739 5739 5738 5738 5737 5737 5737 5737 5737 5737 5737 5738 5738 5739 5740 5741 5742 5743 5744 5744 5745 5745 5746 5746 5747 5747 5746
5756 5753 5751 5749 5748 5746 5745 5743 5742 5741 5740 5739 5738 5737 5736 5736 5735 5735 5734 5733 5732 5732 5732 5732 5732 5733 5733 5733 5734 5734 5735 5736 5738 5739 5739 5740 5741 5741 5742 5742 5743 5743 5743
5752 5749 5747 5746 5744 5742 5741 5739 5738 5737 5736 5736 5735 5734 5733 5732 5732 5731 5731 5730 5729 5729 5729 5729 5729 5729 5730 5730 5730 5731 5732 5733 5734 5734 5735 5736 5737 5738 5738 5739 5739 5739 5740
5748 5746 5744 5743 5741 5739 5738 5737 5735 5734 5733 5733 5732 5731 5730 5730 5729 5729 5728 5728 5727 5727 5726 5726 5727 5727 5727 5727 5727 5728 5729 5730 5730 5731 5732 5733 5734 5734 5735 5736 5736 5737 5737
5746 5744 5742 5741 5739 5737 5736 5735 5733 5732 5732 5731 5730 5729 5729 5728 5728 5728 5727 5726 5726 5725 5725 5725 5725 5725 5725 5725 5726 5726 5727 5728 5728 5729 5730 5730 5731 5731 5732 5733 5734 5735 5735
5744 5742 5741 5739 5737 5736 5735 5734 5732 5731 5730 5730 5729 5728 5728 5728 5727 5727 5727 5726 5726 5725 5725 5724 5724 5724 5724 5724 5725 5725 5726 5726 5727 5727 5728 5729 5729 5730 5731 5731 5732 5733 5734
5743 5741 5740 5738 5736 5735 5734 5733 5732 5731 5730 5729 5728 5728 5728 5728 5728 5727 5727 5727 5726 5726 5725 5725 5724 5724 5724 5724 5725 5725 5725 5726 5726 5727 5727 5728 5729 5729 5730 5730 5731 5732 5732
5743 5741 5740 5738 5736 5735 5734 5733 5732 5731 5730 5730 5729 5729 5729 5729 5728 5728 5728 5727 5727 5726 5726 5726 5725 5725 5725 5725 5725 5726 5726 5726 5727 5727 5728 5728 5729 5729 5729 5730 5730 5730 5731
5743 5741 5740 5738 5737 5735 5734 5733 5732 5732 5731 5731 5730 5730 5730 5730 5729 5729 5729 5728 5728 5727 5727 5727 5727 5727 5726 5726 5727 5727 5727 5727 5728 5728 5728 5729 5729 5729 5729 5729 5730 5730 5730
5744 5743 5741 5739 5737 5736 5735 5734 5733 5733 5732 5732 5732 5731 5731 5731 5731 5730 5730 5729 5729 5728 5728 5728 5728 5728 5728 5728 5728 5728 5728 5729 5729 5729 5729 5729 5729 5729 5729 5729 5729 5729 5729
5746 5744 5742 5740 5739 5738 5737 5736 5735 5734 5734 5733 5733 5733 5733 5733 5732 5732 5731 5731 5730 5730 5730 5730 5730 5730 5730 5730 5730 5730 5730 5730 5730 5730 5730 5730 5730 5730 5729 5729 5729 5729 5728
5748 5746 5744 5742 5741 5740 5739 5738 5737 5736 5735 5735 5734 5734 5734 5734 5733 5733 5733 5732 5732 5732 5732 5731 5731 5731 5731 5731 5731 5731 5731 5731 5731 5731 5731 5731 5730 5730 5729 5729 5728 5728 5727
5750 5748 5746 5745 5743 5742 5741 5740 5739 5738 5737 5737 5736 5736 5736 5735 5735 5734 5734 5734 5734 5733 5733 5733 5733 5733 5733 5733 5733 5733 5733 5733 5732 5732 5732 5731 5731 5730 5729 5728 5728 5727 5726
5752 5750 5748 5746 5745 5744 5743 5742 5741 5740 5739 5739 5738 5738 5737 5737 5736 5736 5736 5735 5735 5735 5735 5735 5735 5734 5734 5734 5734 5734 5734 5733 5733 5732 5732 5731 5730 5729 5729 5728 5727 5725 5724
5754 5752 5750 5749 5747 5746 5744 5743 5742 5741 5741 5740 5739 5739 5738 5738 5738 5737 5737 5737 5737 5736 5736 5736 5736 5736 5735 5735 5735 5734 5734 5733 5733 5732 5731 5731 5730 5729 5728 5726 5725 5724 5722
5756 5754 5752 5751 5749 5747 5746 5745 5744 5743 5742 5741 5741 5740 5740 5739 5739 5738 5738 5738 5738 5737 5737 5737 5736 5736 5735 5735 5735 5734 5734 5733 5732 5731 5730 5729 5728 5727 5726 5724 5723 5721 5719
5757 5756 5754 5752 5751 5749 5748 5746 5745 5744 5743 5742 5741 5741 5740 5740 5739 5739 5739 5738 5738 5738 5737 5736 5736 5735 5735 5734 5734 5733 5732 5731 5730 5729 5728 5727 5726 5724 5723 5721 5719 5717 5715
5758 5757 5755 5754 5752 5751 5749 5748 5746 5745 5744 5743 5742 5741 5741 5740 5739 5739 5738 5738 5738 5737 5736 5735 5735 5734 5733 5732 5732 5731 5730 5729 5728 5726 5725 5724 5722 5720 5718 5716 5714 5712 5709
5759 5758 5756 5755 5753 5752 5750 5749 5747 5746 5745 5744 5743 5742 5741 5740 5739 5738 5738 5737 5736 5735 5735 5734 5733 5732 5731 5730 5729 5727 5726 5725 5724 5722 5720 5719 5717 5715 5713 5711 5708 5705 5703
5759 5758 5757 5755 5754 5752 5751 5750 5748 5746 5745 5744 5742 5741 5740 5739 5738 5737 5736 5735 5734 5733 5732 5731 5730 5729 5727 5726 5724 5723 5722 5720 5718 5716 5715 5713 5711 5709 5706 5704 5701 5698 5695
5759 5758 5757 5755 5754 5752 5751 5749 5748 5746 5745 5743 5741 5740 5739 5737 5736 5735 5734 5732 5731 5730 5728 5727 5725 5724 5723 5721 5719 5718 5716 5714 5712 5710 5708 5706 5703 5701 5698 5695 5692 5689 5686